User: anonymous   Login
Location: Voyageurs National Park
(48.5020°N, 92.9292°W)
Time: 04:27:50
(UTC-06:00)
Language:

Terra - Orbit

View from above orbital plane
View from above orbital plane
View from above satellite
View from above satellite

Ground track
Ground track

The orbit data is extracted from the following two-line orbital elements,

1 25994U 99068A   17321.81869358  .00000283  00000-0  72966-4 0  9990
2 25994  98.2189  34.6376 0000950  76.2683 283.8615 14.57115104953046
Epoch (UTC): 17 November 2017 19:38:55
Eccentricity: 0.0000950
inclination: 98.2189°
perigee height: 702 km
apogee height: 703 km
right ascension of ascending node: 34.6376°
argument of perigee: 76.2683°
revolutions per day: 14.57115104
mean anomaly at epoch: 283.8615°
orbit number at epoch: 95304

The dashed part of the orbit path shows where the satellite is in the earth's shadow,  

DLR